sat.trackr.live / text

‹ back to catalog

TORO-3

NORAD 68481 · 2026-067BT

PAYLOAD ACTIVE UNKNOWN

§ Identity

Operator
Country
ROC
Launch date
2026-03-30
Launch site
AFWTR
Launch vehicle
Mass (kg)
RCS (m²)

External: N2YO · Heavens-Above · Gunter

§ Orbital elements

Epoch: 2026-09-20T02:51:31.790880Z

Period
96.50 min
Inclination
97.7784°
Eccentricity
0.0003333
Mean motion
14.92260566 rev/d
Perigee alt
588.6 km
Apogee alt
593.2 km
Semi-major
6,969.0 km
B*
1.0528e-4
RAAN
220.2044°
Arg perigee
28.6133°
Mean anomaly
331.5269°
Rev number
2,588

§ Raw data

TORO-31 68481U 26067BT  26263.11911795  .00001018  00000+0  10528-3 0  99992 68481  97.7784 220.2044 0003333  28.6133 331.5269 14.92260566 25883

JSON: /api/v1/satellites/68481 · /tle

For live sub-satellite position, see the globe view (requires WebGL).

§ Visibility from observer

Set your observer location to see the next 7 days of passes ≥ 10°. The values pass through the URL so the page stays shareable.

No JS? Fill the form by hand. The geolocation button needs JavaScript.

§ Radio — SatNOGS DB

ModeDescriptionDownlinkUplink
GFSK Mode U - GFSK4k8 - Transmitter 401.580 MHz

1 transmitter · refreshed weekly from db.satnogs.org